Location: ??
(34.9170°N, 135.5016°E)
Time: 12:22:59
(UTC+00:00)

Cosmos 2278 - Pass Details

Date: 29 October 2020
Orbit: 842 x 851 km, 71.1° (Epoch: 27 November)

Event Time Altitude Azimuth Distance (km) Brightness Sun altitude
Exits shadow 20:11:53 - 333° (NNW) 3,366 6.5 -13.9°
Reaches altitude 10° 20:14:17 10° 329° (NNW) 2,463 5.8 -13.4°
Maximum altitude 20:19:46 54° 254° (WSW) 1,012 3.8 -12.3°
Drops below altitude 10° 20:25:14 10° 177° (S) 2,449 6.3 -11.2°
Sets 20:27:43 0° 173° (S) 3,381 7.1 -10.7°
